EW0036 Weather Reports


time (UTC)temp
C
wind
direction
speed
KPH
gust
KPH
rain 1hr
cm
rain 24hr
cm
rain mn
cm
humidity
%
barometer
mb
20260506185059 22 150 0.0 1.6 0.00 0.00 0.00 35 1009.5
20260506184058 22 173 1.6 1.6 0.00 0.00 0.00 35 1009.5
20260506183058 22 136 0.0 1.6 0.00 0.00 0.00 35 1009.5
20260506182057 22 151 0.0 1.6 0.00 0.00 0.00 34 1009.1
20260506181056 22 195 0.0 0.0 0.00 0.00 0.00 34 1009.1
20260506180046 23 176 0.0 1.6 0.00 0.00 0.00 33 1009.1
20260506175013 23 257 1.6 1.6 0.00 0.00 0.00 33 1009.1
20260506173910 23 240 1.6 1.6 0.00 0.00 0.00 31 1009.1
20260506172909 24 200 0.0 1.6 0.00 0.00 0.00 31 1008.8
20260506171908 25 176 0.0 9.7 0.00 0.00 0.00 30 1008.8
20260506170907 25 133 0.0 9.7 0.00 0.00 0.00 30 1008.8
20260506165804 25 148 0.0 3.2 0.00 0.00 0.00 29 1008.5
20260506164803 26 192 1.6 3.2 0.00 0.00 0.00 29 1008.5
20260506163801 26 252 1.6 4.8 0.00 0.00 0.00 28 1008.5
20260506162800 27 223 1.6 4.8 0.00 0.00 0.00 27 1008.5
20260506161727 27 212 1.6 4.8 0.00 0.00 0.00 26 1008.5
20260506160725 28 276 0.0 6.4 0.00 0.00 0.00 25 1008.5
20260506155724 29 154 3.2 6.4 0.00 0.00 0.00 25 1008.5
20260506154723 30 139 3.2 6.4 0.00 0.00 0.00 24 1008.5
20260506153721 30 207 1.6 9.7 0.00 0.00 0.00 23 1008.5
20260506152720 31 184 3.2 6.4 0.00 0.00 0.00 22 1008.5
20260506151649 30 103 1.6 6.4 0.00 0.00 0.00 23 1008.5
20260506150648 31 280 1.6 9.7 0.00 0.00 0.00 22 1008.5
20260506145647 31 120 1.6 9.7 0.00 0.00 0.00 22 1008.5
20260506144646 31 262 3.2 8.0 0.00 0.00 0.00 21 1008.5
20260506143645 31 233 3.2 9.7 0.00 0.00 0.00 23 1008.5
20260506142644 32 198 3.2 9.7 0.00 0.00 0.00 21 1008.5
20260506141632 32 221 3.2 11.3 0.00 0.00 0.00 23 1008.5
20260506140630 31 186 1.6 11.3 0.00 0.00 0.00 23 1008.5
20260506135629 31 170 1.6 6.4 0.00 0.00 0.00 22 1008.5
20260506134628 31 207 1.6 6.4 0.00 0.00 0.00 23 1008.5
20260506133625 31 110 3.2 6.4 0.00 0.00 0.00 22 1008.5
20260506132624 31 213 3.2 16.1 0.00 0.00 0.00 22 1008.5
20260506131623 31 171 3.2 16.1 0.00 0.00 0.00 22 1008.8
20260506130621 31 217 3.2 8.0 0.00 0.00 0.00 22 1008.8
20260506125620 31 274 0.0 8.0 0.00 0.00 0.00 22 1008.8
20260506124619 31 184 1.6 6.4 0.00 0.00 0.00 22 1008.8
20260506123618 31 333 3.2 9.7 0.00 0.00 0.00 20 1008.8
20260506121421 32 274 1.6 6.4 0.00 0.00 0.00 20 1009.1
20260506120420 31 160 1.6 4.8 0.00 0.00 0.00 21 1009.1
20260506115418 31 286 1.6 8.0 0.00 0.00 0.00 22 1009.1
20260506114417 31 193 1.6 8.0 0.00 0.00 0.00 21 1009.5
20260506113319 31 223 3.2 8.0 0.00 0.00 0.00 20 1009.5
20260506112316 31 205 1.6 4.8 0.00 0.00 0.00 23 1009.5
20260506111315 31 125 1.6 3.2 0.00 0.00 0.00 22 1009.5
20260506110310 31 287 1.6 4.8 0.00 0.00 0.00 21 1009.8
20260506105308 31 311 3.2 4.8 0.00 0.00 0.00 22 1009.8
20260506104305 31 188 3.2 6.4 0.00 0.00 0.00 24 1009.8
20260506103304 31 198 1.6 4.8 0.00 0.00 0.00 23 1009.8
20260506102245 31 128 1.6 4.8 0.00 0.00 0.00 23 1009.8
20260506101245 31 267 1.6 4.8 0.00 0.00 0.00 24 1009.8
20260506100244 30 18 1.6 3.2 0.00 0.00 0.00 26 1009.8
20260506095243 30 268 1.6 8.0 0.00 0.00 0.00 27 1009.8
20260506093216 30 80 1.6 6.4 0.00 0.00 0.00 29 1010.2
20260506092214 30 226 1.6 4.8 0.00 0.00 0.00 30 1010.2
20260506091213 30 106 1.6 3.2 0.00 0.00 0.00 28 1010.2
20260506090212 29 201 1.6 3.2 0.00 0.00 0.00 31 1010.2
20260506085211 30 195 1.6 3.2 0.00 0.00 0.00 29 1010.2
20260506084210 29 214 0.0 3.2 0.00 0.00 0.00 29 1010.2
20260506083209 28 259 1.6 3.2 0.00 0.00 0.00 30 1010.2
20260506082137 28 287 1.6 3.2 0.00 0.00 0.00 34 1010.2
20260506081104 28 215 1.6 3.2 0.00 0.00 0.00 33 1010.2
20260506073035 26 142 1.6 3.2 0.00 0.00 0.00 35 1010.2
20260506072034 26 313 1.6 3.2 0.00 0.00 0.00 35 1010.2
20260506071033 25 88 1.6 3.2 0.00 0.00 0.00 36 1010.2
20260506061919 23 109 1.6 3.2 0.00 0.00 0.00 38 1010.2
20260506060913 23 139 0.0 1.6 0.00 0.00 0.00 40 1010.2
20260506050835 18 186 1.6 4.8 0.00 0.00 0.00 50 1009.8
20260506044833 17 145 1.6 3.2 0.00 0.00 0.00 50 1009.8
20260506043833 16 222 1.6 3.2 0.00 0.00 0.00 52 1009.8
20260506042832 16 250 0.0 4.8 0.00 0.00 0.00 53 1009.5
20260506041831 16 211 1.6 4.8 0.00 0.00 0.00 53 1009.5
20260506040828 16 211 1.6 4.8 0.00 0.00 0.00 54 1009.5
20260506035827 16 278 3.2 8.0 0.00 0.00 0.00 54 1009.5
20260506034826 16 55 1.6 8.0 0.00 0.00 0.00 54 1009.5
20260506033825 16 246 1.6 6.4 0.00 0.00 0.00 53 1009.5
20260506032824 16 168 1.6 6.4 0.00 0.00 0.00 53 1009.5
20260506031823 15 241 3.2 6.4 0.00 0.00 0.00 54 1009.5
20260506030750 15 196 1.6 4.8 0.00 0.00 0.00 56 1009.5
20260506025749 15 153 1.6 6.4 0.00 0.00 0.00 56 1009.5
20260506024748 15 21 1.6 6.4 0.00 0.00 0.00 56 1009.1
20260506023747 14 205 1.6 3.2 0.00 0.00 0.00 58 1009.1
20260506022747 13 116 1.6 1.6 0.00 0.00 0.00 61 1009.1
20260506021746 13 149 0.0 1.6 0.00 0.00 0.00 61 1009.1
20260506020745 14 197 0.0 1.6 0.00 0.00 0.00 60 1009.1
20260506015713 14 166 0.0 3.2 0.00 0.00 0.00 59 1009.1
20260506014712 14 134 1.6 3.2 0.00 0.00 0.00 59 1009.1
20260506013711 15 158 0.0 3.2 0.00 0.00 0.00 58 1009.1
20260506012710 15 207 1.6 3.2 0.00 0.00 0.00 58 1009.1
20260506011709 15 176 0.0 3.2 0.00 0.00 0.00 57 1009.1
20260506010708 15 218 1.6 4.8 0.00 0.00 0.00 56 1009.1
20260506005707 16 196 3.2 4.8 0.00 0.00 0.00 55 1009.1
20260506004706 16 107 0.0 8.0 0.00 0.00 0.00 54 1009.1
20260506003634 16 139 1.6 8.0 0.00 0.00 0.00 54 1009.1
20260506002633 16 204 1.6 3.2 0.00 0.00 0.00 53 1009.1
20260506001632 16 185 1.6 3.2 0.00 0.00 0.00 52 1008.8
20260506000529 16 211 1.6 3.2 0.00 0.00 0.00 52 1008.8
20260505235528 17 121 1.6 3.2 0.00 0.00 0.00 51 1008.8
20260505234527 17 189 1.6 8.0 0.00 0.00 0.00 51 1008.8
20260505233526 17 189 1.6 8.0 0.00 0.00 0.00 50 1008.8
20260505232525 17 229 1.6 3.2 0.00 0.00 0.00 50 1008.8
20260505231524 17 240 3.2 6.4 0.00 0.00 0.00 49 1008.8
20260505230523 17 222 1.6 3.2 0.00 0.00 0.00 49 1008.8
20260505225451 17 229 1.6 6.4 0.00 0.00 0.00 48 1008.8
20260505224450 18 144 1.6 6.4 0.00 0.00 0.00 48 1008.8
20260505223449 18 183 1.6 4.8 0.00 0.00 0.00 47 1009.1
20260505222417 18 239 1.6 3.2 0.00 0.00 0.00 47 1009.1
20260505221416 18 160 1.6 6.4 0.00 0.00 0.00 46 1009.1
20260505220344 18 138 1.6 6.4 0.00 0.00 0.00 46 1009.1
20260505215343 18 190 1.6 8.0 0.00 0.00 0.00 46 1009.1
20260505214342 18 238 1.6 8.0 0.00 0.00 0.00 46 1008.8
20260505213341 18 51 1.6 1.6 0.00 0.00 0.00 46 1008.8
20260505212340 18 211 1.6 1.6 0.00 0.00 0.00 45 1009.1
20260505211307 19 33 0.0 1.6 0.00 0.00 0.00 43 1009.1
20260505210306 19 200 0.0 12.9 0.00 0.00 0.00 44 1008.8
20260505205305 19 259 1.6 12.9 0.00 0.00 0.00 43 1008.8
20260505204233 19 294 1.6 6.4 0.00 0.00 0.00 43 1008.8
20260505203232 18 284 1.6 1.6 0.00 0.00 0.00 45 1008.8
20260505202231 18 197 0.0 1.6 0.00 0.00 0.00 45 1008.8
20260505201230 17 297 1.6 1.6 0.00 0.00 0.00 46 1008.8
20260505200229 18 195 0.0 0.0 0.00 0.00 0.00 46 1008.8
20260505195228 18 194 0.0 0.0 0.00 0.00 0.00 46 1008.8
20260505194227 18 194 0.0 0.0 0.00 0.00 0.00 45 1008.8
20260505193227 19 194 0.0 1.6 0.00 0.00 0.00 43 1008.5
20260505192226 20 194 0.0 3.2 0.00 0.00 0.00 42 1008.5
20260505191225 19 82 1.6 3.2 0.00 0.00 0.00 43 1008.5
20260505190224 18 221 3.2 4.8 0.00 0.00 0.00 44 1008.5
20260505185222 18 222 0.0 0.0 0.00 0.00 0.00 44 1008.5